Regional Weather Roundup
Issued by NWS

Home | Current Version | Previous Version | Text Only | Print | Product List | Glossary On
Versions: 1 2 3 4 5 6 7 8 9 10 11 12 13 14 15 16 17 18 19 20 21 22 23 24 25 26 27 28 29 30 31 32 33 34 35 36 37 38 39 40 41 42 43 44 45 46 47 48 49 50
000
ASUS42 KTBW 250110
RWRFL
FLORIDA REGIONAL WEATHER ROUNDUP
NATIONAL WEATHER SERVICE TAMPA BAY RUSKIN FL
800 PM EST MON NOV 24 2014

NOTE: "FAIR" INDICATES FEW OR NO CLOUDS BELOW 12,000 FEET WITH NO
SIGNIFICANT WEATHER AND/OR OBSTRUCTIONS TO VISIBILITY.


FLZ001>010-012>015-112-114-115-250200-
PANHANDLE FLORIDA

CITY           SKY/WX    TMP DP  RH WIND       PRES   REMARKS
PENSACOLA      CLOUDY    62  62 100 CALM      29.93R
PENSACOLA NAS  CLOUDY    63  62  97 SW5       29.93R
MILTON NAS     CLOUDY    63  62  97 CALM      29.94R
CRESTVIEW      MOCLDY    66  63  90 SW7       29.94R
DUKE FIELD     MOCLDY    66  63  91 CALM      29.93R
VALPARAISO     CLOUDY    67  64  90 CALM      29.93R
MARY ESTHER    CLOUDY    68  62  82 W5        29.92R
TRI COUNTY     MOCLDY    65  61  87 MISG      29.94R
PANAMA CITY    MOCLDY    63  59  87 SE7       29.93R
TYNDALL AFB    LGT RAIN  62  61  96 SE7       29.94R
APALACHICOLA   LGT RAIN  67  62  84 CALM      29.95R

STATION/POSITION SKY/WX   TEMP    WIND        PRES    WAVE   SWELL
                          AIR SEA DIR/SP/G            HT/PER HT/PER
                          (F)     (DEG/KT/KT) (MB)    (FT/S) (FT/S)
30.1N   87.6W              69 69  240/  6/  8 1013.1R   3/ 6   3/ 6
29.2N   88.2W              70 71  320/  8/ 10 1014.4R   4/ 7   3/ 7
28.7N   86.0W              69 76  340/ 14/ 19 1013.9R   4/ 7   3/ 7
PANAMA CITY BEAC           66 65  180/ 14/ 15 1014.0R
CAPE SAN BLAS    NOT AVBL
TOWER C                    66     340/ 15/ 17 1013.5F
28.5N   84.5W              75 73  190/ 14/ 16 1013.1R   4/ 6   2/ 7

$$
FLZ011-016>038-118-127-128-134-139-239-250200-
NORTH FLORIDA

CITY           SKY/WX    TMP DP  RH WIND       PRES   REMARKS
MARIANNA       CLOUDY    65  65 100 S10       29.96R
TALLAHASSEE    TSTM      64  60  87 SW6       29.96R FOG
PERRY          TSTM      69  68  99 CALM      29.96R
CROSS CITY       N/A     73  71  93 S6        29.94R
LAKE CITY      CLOUDY    72  72 100 S6        29.95R
GAINESVILLE    MOCLDY    74  71  91 S5        29.97R
MAYPORT NAS    CLOUDY    71  67  87 SE3       29.96R
JACKSONVILLE   MOCLDY    71  70  96 S5        29.96R
JAX NAS        CLOUDY    78  69  73 S6        29.97R
JAX CRAIG      MOCLDY    74  70  87 CALM      29.96R
JAX CECIL      MOCLDY    70  68  94 CALM      29.97R
FERNANDINA BEA FAIR      73  68  83 CALM      29.95R
ST AUGUSTINE   MOCLDY    73  69  87 CALM      29.98R

STATION/POSITION SKY/WX   TEMP    WIND        PRES    WAVE   SWELL
                          AIR SEA DIR/SP/G            HT/PER HT/PER
                          (F)     (DEG/KT/KT) (MB)    (FT/S) (FT/S)
SHELL POINT                63     170/  2/  4   N/A
KEATON BEACH               68      80/  3/  4 1013.3R
CEDAR KEY        NOT AVBL
FERNANDINA                 73 63  120/  3/  5 1013.9R
30.7N   81.3W                 62                N/A     4/ 9
MAYPORT                    71 65  150/  4/  5   N/A
31.4N   80.9W              66 65   40/  4/  6 1014.9R   5/ 9   5/ 9
ST AUGUSTINE               68     180/  7/  8 1015.4R

$$
FLZ040-043>046-052-053-057-058-063-144-250200-
INTERIOR CENTRAL FLORIDA

CITY           SKY/WX    TMP DP  RH WIND       PRES   REMARKS
OCALA          MOCLDY    72  66  83 CALM      29.98R
THE VILLAGES     N/A     75  70  83 S3        29.88R
LEESBURG       MOCLDY    75  68  78 SW5       29.99R
SANFORD        PTCLDY    78  67  68 S5        29.98R
ORLANDO EXEC   PTCLDY    78  69  73 S8        29.99R
ORLANDO INTL   MOCLDY    76  69  79 S6        29.99R
KISSIMMEE      CLEAR     77  72  83 S5        30.00R
WINTER HAVEN   CLEAR     75  70  84 S6        30.00R
LAKELAND       PTCLDY    72  70  94 S5        30.00R
BARTOW         FAIR      73  72  94 S5        30.00R
OKEECHOBEE     PTCLDY   N/A N/A N/A CALM      30.01R

$$
FLZ041-047-054-059-064-141-147-250200-
EAST CENTRAL FLORIDA

CITY           SKY/WX    TMP DP  RH WIND       PRES   REMARKS
DAYTONA BEACH  MOCLDY    75  70  84 S3        29.98R
DELAND         MOCLDY   N/A N/A N/A SW3       29.99R
NEW SMYRNA BEA PTCLDY    73  70  88 CALM      29.98R
JFK SPACE CTR  CLEAR     74  72  92 S6        29.99R
TITUSVILLE     CLEAR     73  72  94 SE6       29.99R
CAPE CANAVERAL CLEAR     75  73  94 S9        29.99R
PATRICK AFB    PTCLDY    76  74  93 S9        29.99R
MELBOURNE      PTCLDY    78  71  79 S3        29.99R
VERO BEACH     MOCLDY    78  75  90 S8        30.01R
FT PIERCE      PTCLDY    78  74  87 SE5       30.00R
STUART         CLEAR     77  73  88 S7        30.02R

STATION/POSITION SKY/WX   TEMP    WIND        PRES    WAVE   SWELL
                          AIR SEA DIR/SP/G            HT/PER HT/PER
                          (F)     (DEG/KT/KT) (MB)    (FT/S) (FT/S)
28.5N   80.2W              79 78  160/ 16/ 17 1015.3R
28.9N   78.5W              79 78  180/ 14/ 16 1017.0R   7/10   7/10
TRIDENT PIER               72 71  150/  5/  7 1015.0R
28.4N   80.5W                 70                N/A     3/ 9
27.6N   80.2W                 77                N/A     4/10   2/11

$$
FLZ050-056-061-142-242-148-248-149-249-151-251-155-255-
160-260-250200-
WEST CENTRAL FLORIDA

CITY           SKY/WX    TMP DP  RH WIND       PRES   REMARKS
CRYSTAL RIVER  MOCLDY    72  70  94 CALM      29.97R
INVERNESS      FAIR      72  68  88 CALM      29.98R
BROOKSVILLE    MOCLDY    73  70  90 S3        29.99R
ZEPHYRHILLS    FAIR      70  68  94 CALM      30.00R
CLEARWATER     CLOUDY   N/A N/A N/A S10       29.98R
TAMPA INTL     MOCLDY    72  70  93 S7        29.99R FOG
TAMPA EXEC     CLEAR     73  70  88 CALM      29.99R
PLANT CITY     CLEAR     77  72  83 S3        30.01R
MACDILL AFB    PTCLDY    69  69 100 SW5       29.99R
PETER O KNIGHT PTCLDY    75  72  88 SW5       29.98S
ST PETERSBURG  PTCLDY    73  71  93 SW7       29.97R
SARASOTA       MOCLDY    74  73  97 S9        29.97R
VENICE         FAIR      75  72  88 S9        30.00R

STATION/POSITION SKY/WX   TEMP    WIND        PRES    WAVE   SWELL
                          AIR SEA DIR/SP/G            HT/PER HT/PER
                          (F)     (DEG/KT/KT) (MB)    (FT/S) (FT/S)
CEDAR KEY        NOT AVBL
28.5N   84.5W              75 73  190/ 14/ 16 1013.1R   4/ 6   2/ 7
27.3N   84.3W                 79                N/A     4/ 6
CLEARWATER BEACH           72 67  170/ 10/ 13 1014.8R
MIDDLE TAMPA BAY           71     200/  8/  9 1015.3R
VENICE                     73 70  150/ 12/ 13 1015.3R

$$
FLZ066-069-070-075>078-162-262-165-265-250200-
SOUTHWEST FLORIDA AND KEYS

CITY           SKY/WX    TMP DP  RH WIND       PRES   REMARKS
PUNTA GORDA    CLEAR     75  70  84 S3        30.01R
FT MYERS       CLEAR     76  70  82 S3        30.00R
SOUTHWEST INTL CLEAR     74  69  85 SW5       30.01R
NAPLES         CLOUDY    78  72  81 SE3       30.01R
MARCO ISLAND   CLOUDY    77  72  83 CALM      30.00R
MARATHON       MOCLDY    80  79  96 SE6       30.00R
KEY WEST NAS   CLOUDY    78  77  96 SE8       30.00R
KEY WEST INTL  CLOUDY    80  77  90 SE8       30.00R

STATION/POSITION SKY/WX   TEMP    WIND        PRES    WAVE   SWELL
                          AIR SEA DIR/SP/G            HT/PER HT/PER
                          (F)     (DEG/KT/KT) (MB)    (FT/S) (FT/S)
VENICE                     73 70  150/ 12/ 13 1015.3R
NAPLES                     77     140/  3/  4 1016.6R
26.0N   85.6W              80 81  180/ 12/ 14 1014.1R   4/ 6   3/ 6
DRY TORTUGAS               78     130/  7/  7 1014.6R
NW FL BAY                  77     100/  2/  3 1015.7R
SAND KEY                   79     120/  9/ 10 1015.7R
SOMBRERO KEY               80     130/ 14/ 14 1016.5R
MOLASSES REEF              80 79  160/  7/  7 1016.6R

$$
FLZ067-068-071>074-168-172>174-250200-
SOUTHEAST FLORIDA

CITY           SKY/WX    TMP DP  RH WIND       PRES   REMARKS
W PALM BEACH   PTCLDY    81  77  88 S9        30.01R
FT LAUDER-EXEC CLEAR     80  76  87 SE8       30.01R
FT LAUDERDALE  MOCLDY    82  77  84 S7        30.01R
POMPANO BEACH  CLEAR     80  77  90 S8        30.02R
PEMBROKE PINES PTCLDY    80  77  90 S7        30.03R
OPA LOCKA      CLEAR     80  76  87 S7        30.03R
MIAMI          PTCLDY    79  77  94 SE5       30.02R
WEST KENDALL   CLEAR     79  77  94 SE5       30.02R
HOMESTEAD      PTCLDY    79  77  94 SE3       30.02R

STATION/POSITION SKY/WX   TEMP    WIND        PRES    WAVE   SWELL
                          AIR SEA DIR/SP/G            HT/PER HT/PER
                          (F)     (DEG/KT/KT) (MB)    (FT/S) (FT/S)
PORT EVERGLADES            79     170/  2/  3 1016.6
VIRGINIA KEY               79 76  160/  4/  5 1017.0R
LAKE WORTH                 80 79  170/ 14/ 15 1016.2R
SETTLEMENT POINT           79     150/  9/ 11 1017.9R

$$



USA.gov is the U.S. government's official web portal to all federal, state and local government web resources and services.